Year,Month,Day,Hour,Minute,Value (Times are PST for temperature in C)
2007,07,11,00,00,22.80
2007,07,11,00,01,22.80
2007,07,11,00,02,22.80
2007,07,11,00,03,22.80
2007,07,11,00,04,22.80
2007,07,11,00,05,22.80
2007,07,11,00,06,22.80
2007,07,11,00,07,22.80
2007,07,11,00,08,22.80
2007,07,11,00,09,22.80
2007,07,11,00,10,22.80
2007,07,11,00,11,22.80
2007,07,11,00,12,22.80
2007,07,11,00,13,22.80
2007,07,11,00,14,22.80
2007,07,11,00,15,22.80
2007,07,11,00,16,22.70
2007,07,11,00,17,22.70
2007,07,11,00,18,22.70
2007,07,11,00,19,22.70
2007,07,11,00,20,22.70
2007,07,11,00,21,22.60
2007,07,11,00,22,22.60
2007,07,11,00,23,22.60
2007,07,11,00,24,22.60
2007,07,11,00,25,22.60
2007,07,11,00,26,22.50
2007,07,11,00,27,22.50
2007,07,11,00,28,22.50
2007,07,11,00,29,22.50
2007,07,11,00,30,22.50
2007,07,11,00,31,22.60
2007,07,11,00,32,22.60
2007,07,11,00,33,22.50
2007,07,11,00,34,22.50
2007,07,11,00,35,22.50
2007,07,11,00,36,22.50
2007,07,11,00,37,22.50
2007,07,11,00,38,22.50
2007,07,11,00,39,22.50
2007,07,11,00,40,22.50
2007,07,11,00,41,22.50
2007,07,11,00,42,22.50
2007,07,11,00,43,22.50
2007,07,11,00,44,22.50
2007,07,11,00,45,22.50
2007,07,11,00,46,22.40
2007,07,11,00,47,22.40
2007,07,11,00,48,22.40
2007,07,11,00,49,22.40
2007,07,11,00,50,22.40
2007,07,11,00,51,22.30
2007,07,11,00,52,22.30
2007,07,11,00,53,22.30
2007,07,11,00,54,22.30
2007,07,11,00,55,22.30
2007,07,11,00,56,22.20
2007,07,11,00,57,22.20
2007,07,11,00,58,22.20
2007,07,11,00,59,22.20
2007,07,11,01,00,22.20
2007,07,11,01,01,22.20
2007,07,11,01,02,22.20
2007,07,11,01,03,22.20
2007,07,11,01,04,22.20
2007,07,11,01,05,22.20
2007,07,11,01,06,22.10
2007,07,11,01,07,22.10
2007,07,11,01,08,22.10
2007,07,11,01,09,22.10
2007,07,11,01,10,22.10
2007,07,11,01,11,22.00
2007,07,11,01,12,22.00
2007,07,11,01,13,22.00
2007,07,11,01,14,22.00
2007,07,11,01,15,22.00
2007,07,11,01,16,21.90
2007,07,11,01,17,21.90
2007,07,11,01,18,21.90
2007,07,11,01,19,21.90
2007,07,11,01,20,21.80
2007,07,11,01,21,21.80
2007,07,11,01,22,21.80
2007,07,11,01,23,21.70
2007,07,11,01,24,21.70
2007,07,11,01,25,21.70
2007,07,11,01,26,21.70
2007,07,11,01,27,21.60
2007,07,11,01,28,21.60
2007,07,11,01,29,21.60
2007,07,11,01,30,21.60
2007,07,11,01,31,21.60
2007,07,11,01,32,21.60
2007,07,11,01,33,21.60
2007,07,11,01,34,21.60
2007,07,11,01,35,21.60
2007,07,11,01,36,21.60
2007,07,11,01,37,21.50
2007,07,11,01,38,21.40
2007,07,11,01,39,21.40
2007,07,11,01,40,21.40
2007,07,11,01,41,21.40
2007,07,11,01,42,21.40
2007,07,11,01,43,21.40
2007,07,11,01,44,21.40
2007,07,11,01,45,21.40
2007,07,11,01,46,21.40
2007,07,11,01,47,21.40
2007,07,11,01,48,21.30
2007,07,11,01,49,21.30
2007,07,11,01,50,21.30
2007,07,11,01,51,21.30
2007,07,11,01,52,21.30
2007,07,11,01,53,21.30
2007,07,11,01,54,21.30
2007,07,11,01,55,21.30
2007,07,11,01,56,21.30
2007,07,11,01,57,21.30
2007,07,11,01,58,21.30
2007,07,11,01,59,21.30
2007,07,11,02,00,21.30
2007,07,11,02,01,21.20
2007,07,11,02,02,21.20
2007,07,11,02,03,21.20
2007,07,11,02,04,21.20
2007,07,11,02,05,21.10
2007,07,11,02,06,21.10
2007,07,11,02,07,21.10
2007,07,11,02,08,21.10
2007,07,11,02,09,21.10
2007,07,11,02,10,21.00
2007,07,11,02,11,21.00
2007,07,11,02,12,21.00
2007,07,11,02,13,21.00
2007,07,11,02,14,21.00
2007,07,11,02,15,21.00
2007,07,11,02,16,21.00
2007,07,11,02,17,21.00
2007,07,11,02,18,21.00
2007,07,11,02,19,21.10
2007,07,11,02,20,21.10
2007,07,11,02,21,21.10
2007,07,11,02,22,21.10
2007,07,11,02,23,21.10
2007,07,11,02,24,21.10
2007,07,11,02,25,21.10
2007,07,11,02,26,21.10
2007,07,11,02,27,21.10
2007,07,11,02,28,21.10
2007,07,11,02,29,21.10
2007,07,11,02,30,21.10
2007,07,11,02,31,21.10
2007,07,11,02,32,21.10
2007,07,11,02,33,21.10
2007,07,11,02,34,21.10
2007,07,11,02,35,21.10
2007,07,11,02,36,21.10
2007,07,11,02,37,21.10
2007,07,11,02,38,21.10
2007,07,11,02,39,21.10
2007,07,11,02,40,21.10
2007,07,11,02,41,21.10
2007,07,11,02,42,21.10
2007,07,11,02,43,21.10
2007,07,11,02,44,21.10
2007,07,11,02,45,21.10
2007,07,11,02,46,21.10
2007,07,11,02,47,21.00
2007,07,11,02,48,21.00
2007,07,11,02,49,21.00
2007,07,11,02,50,21.00
2007,07,11,02,51,21.00
2007,07,11,02,52,21.00
2007,07,11,02,53,21.00
2007,07,11,02,54,21.00
2007,07,11,02,55,21.00
2007,07,11,02,56,21.00
2007,07,11,02,57,20.90
2007,07,11,02,58,20.90
2007,07,11,02,59,20.90
2007,07,11,03,00,20.90
2007,07,11,03,01,20.90
2007,07,11,03,02,20.80
2007,07,11,03,03,20.80
2007,07,11,03,04,20.80
2007,07,11,03,05,20.80
2007,07,11,03,06,20.80
2007,07,11,03,07,20.80
2007,07,11,03,08,20.80
2007,07,11,03,09,20.80
2007,07,11,03,10,20.80
2007,07,11,03,11,20.80
2007,07,11,03,12,20.80
2007,07,11,03,13,20.80
2007,07,11,03,14,20.80
2007,07,11,03,15,20.80
2007,07,11,03,16,20.80
2007,07,11,03,17,20.70
2007,07,11,03,18,20.70
2007,07,11,03,19,20.70
2007,07,11,03,20,20.70
2007,07,11,03,21,20.70
2007,07,11,03,22,20.70
2007,07,11,03,23,20.60
2007,07,11,03,24,20.60
2007,07,11,03,25,20.60
2007,07,11,03,26,20.60
2007,07,11,03,27,20.60
2007,07,11,03,28,20.60
2007,07,11,03,29,20.60
2007,07,11,03,30,20.60
2007,07,11,03,31,20.60
2007,07,11,03,32,20.60
2007,07,11,03,33,20.60
2007,07,11,03,34,20.60
2007,07,11,03,35,20.60
2007,07,11,03,36,20.60
2007,07,11,03,37,20.60
2007,07,11,03,38,20.60
2007,07,11,03,39,20.60
2007,07,11,03,40,20.60
2007,07,11,03,41,20.60
2007,07,11,03,42,20.60
2007,07,11,03,43,20.60
2007,07,11,03,44,20.60
2007,07,11,03,45,20.60
2007,07,11,03,46,20.60
2007,07,11,03,47,20.60
2007,07,11,03,48,20.60
2007,07,11,03,49,20.60
2007,07,11,03,50,20.60
2007,07,11,03,51,20.60
2007,07,11,03,52,20.60
2007,07,11,03,53,20.60
2007,07,11,03,54,20.60
2007,07,11,03,55,20.60
2007,07,11,03,56,20.60
2007,07,11,03,57,20.60
2007,07,11,03,58,20.50
2007,07,11,03,59,20.50
2007,07,11,04,00,20.50
2007,07,11,04,01,20.50
2007,07,11,04,02,20.50
2007,07,11,04,03,20.50
2007,07,11,04,04,20.50
2007,07,11,04,05,20.50
2007,07,11,04,06,20.40
2007,07,11,04,07,20.40
2007,07,11,04,08,20.40
2007,07,11,04,09,20.40
2007,07,11,04,10,20.40
2007,07,11,04,11,20.40
2007,07,11,04,12,20.40
2007,07,11,04,13,20.40
2007,07,11,04,14,20.40
2007,07,11,04,15,20.40
2007,07,11,04,16,20.40
2007,07,11,04,17,20.30
2007,07,11,04,18,20.30
2007,07,11,04,19,20.30
2007,07,11,04,20,20.30
2007,07,11,04,21,20.30
2007,07,11,04,22,20.20
2007,07,11,04,23,20.20
2007,07,11,04,24,20.20
2007,07,11,04,25,20.20
2007,07,11,04,26,20.20
2007,07,11,04,27,20.20
2007,07,11,04,28,20.20
2007,07,11,04,29,20.20
2007,07,11,04,30,20.20
2007,07,11,04,31,20.20
2007,07,11,04,32,20.10
2007,07,11,04,33,20.10
2007,07,11,04,34,20.10
2007,07,11,04,35,20.10
2007,07,11,04,36,20.10
2007,07,11,04,37,20.00
2007,07,11,04,38,19.90
2007,07,11,04,39,19.90
2007,07,11,04,40,20.00
2007,07,11,04,41,20.00
2007,07,11,04,42,20.00
2007,07,11,04,43,19.90
2007,07,11,04,44,19.90
2007,07,11,04,45,19.90
2007,07,11,04,46,19.90
2007,07,11,04,47,19.90
2007,07,11,04,48,19.90
2007,07,11,04,49,19.90
2007,07,11,04,50,19.90
2007,07,11,04,51,19.90
2007,07,11,04,52,19.90
2007,07,11,04,53,19.80
2007,07,11,04,54,19.80
2007,07,11,04,55,19.80
2007,07,11,04,56,19.80
2007,07,11,04,57,19.80
2007,07,11,04,58,19.70
2007,07,11,04,59,19.70
2007,07,11,05,00,19.70
2007,07,11,05,01,19.70
2007,07,11,05,02,19.70
2007,07,11,05,03,19.60
2007,07,11,05,04,19.60
2007,07,11,05,05,19.60
2007,07,11,05,06,19.60
2007,07,11,05,07,19.60
2007,07,11,05,08,19.50
2007,07,11,05,09,19.50
2007,07,11,05,10,19.50
2007,07,11,05,11,19.50
2007,07,11,05,12,19.50
2007,07,11,05,13,19.50
2007,07,11,05,14,19.50
2007,07,11,05,15,19.40
2007,07,11,05,16,19.40
2007,07,11,05,17,19.40
2007,07,11,05,18,19.40
2007,07,11,05,19,19.40
2007,07,11,05,20,19.40
2007,07,11,05,21,19.40
2007,07,11,05,22,19.40
2007,07,11,05,23,19.40
2007,07,11,05,24,19.40
2007,07,11,05,25,19.40
2007,07,11,05,26,19.40
2007,07,11,05,27,19.40
2007,07,11,05,28,19.40
2007,07,11,05,29,19.40
2007,07,11,05,30,19.40
2007,07,11,05,31,19.50
2007,07,11,05,32,19.50
2007,07,11,05,33,19.50
2007,07,11,05,34,19.50
2007,07,11,05,35,19.50
2007,07,11,05,36,19.50
2007,07,11,05,37,19.40
2007,07,11,05,38,19.40
2007,07,11,05,39,19.40
2007,07,11,05,40,19.40
2007,07,11,05,41,19.40
2007,07,11,05,42,19.40
2007,07,11,05,43,19.40
2007,07,11,05,44,19.40
2007,07,11,05,45,19.40
2007,07,11,05,46,19.40
2007,07,11,05,47,19.40
2007,07,11,05,48,19.40
2007,07,11,05,49,19.40
2007,07,11,05,50,19.40
2007,07,11,05,51,19.40
2007,07,11,05,52,19.40
2007,07,11,05,53,19.40
2007,07,11,05,54,19.40
2007,07,11,05,55,19.40
2007,07,11,05,56,19.50
2007,07,11,05,57,19.50
2007,07,11,05,58,19.50
2007,07,11,05,59,19.50
2007,07,11,06,00,19.50
2007,07,11,06,01,19.50
2007,07,11,06,02,19.50
2007,07,11,06,03,19.50
2007,07,11,06,04,19.40
2007,07,11,06,05,19.40
2007,07,11,06,06,19.40
2007,07,11,06,07,19.40
2007,07,11,06,08,19.40
2007,07,11,06,09,19.40
2007,07,11,06,10,19.40
2007,07,11,06,11,19.40
2007,07,11,06,12,19.40
2007,07,11,06,13,19.40
2007,07,11,06,14,19.40
2007,07,11,06,15,19.40
2007,07,11,06,16,19.40
2007,07,11,06,17,19.40
2007,07,11,06,18,19.40
2007,07,11,06,19,19.40
2007,07,11,06,20,19.40
2007,07,11,06,21,19.40
2007,07,11,06,22,19.40
2007,07,11,06,23,19.40
2007,07,11,06,24,19.40
2007,07,11,06,25,19.50
2007,07,11,06,26,19.50
2007,07,11,06,27,19.50
2007,07,11,06,28,19.50
2007,07,11,06,29,19.60
2007,07,11,06,30,19.60
2007,07,11,06,31,19.60
2007,07,11,06,32,19.70
2007,07,11,06,33,19.70
2007,07,11,06,34,19.80
2007,07,11,06,35,19.80
2007,07,11,06,36,19.80
2007,07,11,06,37,19.90
2007,07,11,06,38,19.90
2007,07,11,06,39,19.90
2007,07,11,06,40,19.90
2007,07,11,06,41,20.10
2007,07,11,06,42,20.10
2007,07,11,06,43,20.10
2007,07,11,06,44,20.20
2007,07,11,06,45,20.20
2007,07,11,06,46,20.20
2007,07,11,06,47,20.20
2007,07,11,06,48,20.20
2007,07,11,06,49,20.30
2007,07,11,06,50,20.30
2007,07,11,06,51,20.40
2007,07,11,06,52,20.40
2007,07,11,06,53,20.50
2007,07,11,06,54,20.50
2007,07,11,06,55,20.50
2007,07,11,06,56,20.60
2007,07,11,06,57,20.60
2007,07,11,06,58,20.70
2007,07,11,06,59,20.70
2007,07,11,07,00,20.80
2007,07,11,07,01,20.80
2007,07,11,07,02,20.90
2007,07,11,07,03,20.90
2007,07,11,07,04,21.00
2007,07,11,07,05,21.00
2007,07,11,07,06,21.10
2007,07,11,07,07,21.10
2007,07,11,07,08,21.20
2007,07,11,07,09,21.30
2007,07,11,07,10,21.30
2007,07,11,07,11,21.50
2007,07,11,07,12,21.70
2007,07,11,07,13,21.80
2007,07,11,07,14,22.00
2007,07,11,07,15,22.10
2007,07,11,07,16,22.20
2007,07,11,07,17,22.40
2007,07,11,07,18,22.60
2007,07,11,07,19,22.70
2007,07,11,07,20,22.80
2007,07,11,07,21,22.90
2007,07,11,07,22,23.00
2007,07,11,07,23,23.10
2007,07,11,07,24,23.20
2007,07,11,07,25,23.30
2007,07,11,07,26,23.30
2007,07,11,07,27,23.30
2007,07,11,07,28,23.30
2007,07,11,07,29,23.30
2007,07,11,07,30,23.30
2007,07,11,07,31,23.30
2007,07,11,07,32,23.30
2007,07,11,07,33,23.40
2007,07,11,07,34,23.50
2007,07,11,07,35,23.60
2007,07,11,07,36,23.70
2007,07,11,07,37,23.70
2007,07,11,07,38,23.80
2007,07,11,07,39,23.90
2007,07,11,07,40,24.00
2007,07,11,07,41,24.10
2007,07,11,07,42,24.10
2007,07,11,07,43,24.20
2007,07,11,07,44,24.20
2007,07,11,07,45,24.30
2007,07,11,07,46,24.30
2007,07,11,07,47,24.30
2007,07,11,07,48,24.40
2007,07,11,07,49,24.40
2007,07,11,07,50,24.40
2007,07,11,07,51,24.30
2007,07,11,07,52,24.30
2007,07,11,07,53,24.10
2007,07,11,07,54,24.10
2007,07,11,07,55,24.00
2007,07,11,07,56,24.00
2007,07,11,07,57,24.10
2007,07,11,07,58,24.10
2007,07,11,07,59,24.10
2007,07,11,08,00,24.30
2007,07,11,08,01,24.30
2007,07,11,08,02,24.40
2007,07,11,08,03,24.50
2007,07,11,08,04,24.60
2007,07,11,08,05,24.60
2007,07,11,08,06,24.70
2007,07,11,08,07,24.80
2007,07,11,08,08,24.90
2007,07,11,08,09,24.90
2007,07,11,08,10,25.00
2007,07,11,08,11,25.10
2007,07,11,08,12,25.10
2007,07,11,08,13,25.20
2007,07,11,08,14,25.10
2007,07,11,08,15,25.10
2007,07,11,08,16,25.10
2007,07,11,08,17,24.90
2007,07,11,08,18,24.90
2007,07,11,08,19,24.90
2007,07,11,08,20,24.80
2007,07,11,08,21,24.80
2007,07,11,08,22,24.70
2007,07,11,08,23,24.70
2007,07,11,08,24,24.70
2007,07,11,08,25,24.70
2007,07,11,08,26,24.70
2007,07,11,08,27,24.70
2007,07,11,08,28,24.70
2007,07,11,08,29,24.70
2007,07,11,08,30,24.60
2007,07,11,08,31,24.60
2007,07,11,08,32,24.60
2007,07,11,08,33,24.70
2007,07,11,08,34,24.70
2007,07,11,08,35,24.80
2007,07,11,08,36,24.90
2007,07,11,08,37,25.10
2007,07,11,08,38,25.20
2007,07,11,08,39,25.30
2007,07,11,08,40,25.40
2007,07,11,08,41,25.60
2007,07,11,08,42,25.70
2007,07,11,08,43,25.80
2007,07,11,08,44,25.80
2007,07,11,08,45,25.70
2007,07,11,08,46,25.50
2007,07,11,08,47,25.30
2007,07,11,08,48,25.10
2007,07,11,08,49,24.90
2007,07,11,08,50,24.80
2007,07,11,08,51,24.80
2007,07,11,08,52,24.90
2007,07,11,08,53,25.00
2007,07,11,08,54,25.10
2007,07,11,08,55,25.30
2007,07,11,08,56,25.40
2007,07,11,08,57,25.40
2007,07,11,08,58,25.60
2007,07,11,08,59,25.70
2007,07,11,09,00,25.80
2007,07,11,09,01,25.90
2007,07,11,09,02,25.90
2007,07,11,09,03,26.00
2007,07,11,09,04,26.20
2007,07,11,09,05,26.10
2007,07,11,09,06,26.00
2007,07,11,09,07,26.00
2007,07,11,09,08,25.90
2007,07,11,09,09,25.80
2007,07,11,09,10,25.80
2007,07,11,09,11,25.80
2007,07,11,09,12,25.90
2007,07,11,09,13,25.80
2007,07,11,09,14,25.90
2007,07,11,09,15,26.00
2007,07,11,09,16,26.00
2007,07,11,09,17,26.00
2007,07,11,09,18,26.00
2007,07,11,09,19,26.00
2007,07,11,09,20,26.20
2007,07,11,09,21,26.30
2007,07,11,09,22,26.40
2007,07,11,09,23,26.50
2007,07,11,09,24,26.60
2007,07,11,09,25,26.60
2007,07,11,09,26,26.60
2007,07,11,09,27,26.60
2007,07,11,09,28,26.70
2007,07,11,09,29,26.80
2007,07,11,09,30,27.00
2007,07,11,09,31,27.20
2007,07,11,09,32,27.10
2007,07,11,09,33,26.90
2007,07,11,09,34,26.70
2007,07,11,09,35,26.50
2007,07,11,09,36,26.30
2007,07,11,09,37,26.10
2007,07,11,09,38,26.00
2007,07,11,09,39,26.10
2007,07,11,09,40,26.10
2007,07,11,09,41,26.30
2007,07,11,09,42,26.40
2007,07,11,09,43,26.40
2007,07,11,09,44,26.40
2007,07,11,09,45,26.50
2007,07,11,09,46,26.60
2007,07,11,09,47,26.70
2007,07,11,09,48,26.80
2007,07,11,09,49,26.90
2007,07,11,09,50,27.00
2007,07,11,09,51,27.10
2007,07,11,09,52,27.30
2007,07,11,09,53,27.30
2007,07,11,09,54,27.50
2007,07,11,09,55,27.80
2007,07,11,09,56,28.10
2007,07,11,09,57,28.20
2007,07,11,09,58,28.40
2007,07,11,09,59,28.60
2007,07,11,10,00,28.60
2007,07,11,10,01,28.80
2007,07,11,10,02,28.90
2007,07,11,10,03,29.00
2007,07,11,10,04,29.20
2007,07,11,10,05,29.30
2007,07,11,10,06,29.40
2007,07,11,10,07,29.50
2007,07,11,10,08,29.70
2007,07,11,10,09,29.80
2007,07,11,10,10,29.90
2007,07,11,10,11,30.00
2007,07,11,10,12,30.10
2007,07,11,10,13,30.10
2007,07,11,10,14,30.10
2007,07,11,10,15,30.20
2007,07,11,10,16,30.20
2007,07,11,10,17,30.30
2007,07,11,10,18,30.40
2007,07,11,10,19,30.40
2007,07,11,10,20,30.40
2007,07,11,10,21,30.40
2007,07,11,10,22,30.40
2007,07,11,10,23,30.50
2007,07,11,10,24,30.60
2007,07,11,10,25,30.60
2007,07,11,10,26,30.60
2007,07,11,10,27,30.60
2007,07,11,10,28,30.70
2007,07,11,10,29,30.70
2007,07,11,10,30,30.70
2007,07,11,10,31,30.70
2007,07,11,10,32,30.80
2007,07,11,10,33,30.90
2007,07,11,10,34,31.00
2007,07,11,10,35,31.10
2007,07,11,10,36,31.10
2007,07,11,10,37,31.30
2007,07,11,10,38,31.40
2007,07,11,10,39,31.40
2007,07,11,10,40,31.40
2007,07,11,10,41,31.50
2007,07,11,10,42,31.60
2007,07,11,10,43,31.60
2007,07,11,10,44,31.60
2007,07,11,10,45,31.60
2007,07,11,10,46,31.60
2007,07,11,10,47,31.60
2007,07,11,10,48,31.60
2007,07,11,10,49,31.60
2007,07,11,10,50,31.70
2007,07,11,10,51,31.70
2007,07,11,10,52,31.70
2007,07,11,10,53,31.60
2007,07,11,10,54,31.60
2007,07,11,10,55,31.60
2007,07,11,10,56,31.60
2007,07,11,10,57,31.60
2007,07,11,10,58,31.80
2007,07,11,10,59,31.90
2007,07,11,11,00,32.10
2007,07,11,11,01,32.10
2007,07,11,11,02,32.10
2007,07,11,11,03,32.10
2007,07,11,11,04,32.20
2007,07,11,11,05,32.20
2007,07,11,11,06,32.20
2007,07,11,11,07,32.30
2007,07,11,11,08,32.30
2007,07,11,11,09,32.30
2007,07,11,11,10,32.30
2007,07,11,11,11,32.30
2007,07,11,11,12,32.30
2007,07,11,11,13,32.30
2007,07,11,11,14,32.30
2007,07,11,11,15,32.30
2007,07,11,11,16,32.30
2007,07,11,11,17,32.30
2007,07,11,11,18,32.30
2007,07,11,11,19,32.30
2007,07,11,11,20,32.30
2007,07,11,11,21,32.30
2007,07,11,11,22,32.30
2007,07,11,11,23,32.30
2007,07,11,11,24,32.20
2007,07,11,11,25,32.20
2007,07,11,11,26,32.20
2007,07,11,11,27,32.30
2007,07,11,11,28,32.30
2007,07,11,11,29,32.30
2007,07,11,11,30,32.30
2007,07,11,11,31,32.30
2007,07,11,11,32,32.30
2007,07,11,11,33,32.50
2007,07,11,11,34,32.80
2007,07,11,11,35,32.90
2007,07,11,11,36,33.00
2007,07,11,11,37,33.10
2007,07,11,11,38,33.10
2007,07,11,11,39,33.20
2007,07,11,11,40,33.20
2007,07,11,11,41,33.30
2007,07,11,11,42,33.40
2007,07,11,11,43,33.40
2007,07,11,11,44,33.20
2007,07,11,11,45,33.10
2007,07,11,11,46,33.00
2007,07,11,11,47,32.70
2007,07,11,11,48,32.60
2007,07,11,11,49,32.50
2007,07,11,11,50,32.50
2007,07,11,11,51,32.40
2007,07,11,11,52,32.40
2007,07,11,11,53,32.40
2007,07,11,11,54,32.40
2007,07,11,11,55,32.30
2007,07,11,11,56,32.30
2007,07,11,11,57,32.20
2007,07,11,11,58,32.10
2007,07,11,11,59,32.10
2007,07,11,12,00,32.00
2007,07,11,12,01,31.90
2007,07,11,12,02,31.90
2007,07,11,12,03,31.90
2007,07,11,12,04,31.80
2007,07,11,12,05,31.80
2007,07,11,12,06,31.70
2007,07,11,12,07,31.70
2007,07,11,12,08,31.70
2007,07,11,12,09,31.60
2007,07,11,12,10,31.40
2007,07,11,12,11,31.10
2007,07,11,12,12,30.90
2007,07,11,12,13,30.70
2007,07,11,12,14,30.70
2007,07,11,12,15,30.70
2007,07,11,12,16,30.70
2007,07,11,12,17,30.60
2007,07,11,12,18,30.60
2007,07,11,12,19,30.60
2007,07,11,12,20,30.60
2007,07,11,12,21,30.70
2007,07,11,12,22,30.80
2007,07,11,12,23,30.80
2007,07,11,12,24,30.90
2007,07,11,12,25,30.90
2007,07,11,12,26,30.80
2007,07,11,12,27,30.80
2007,07,11,12,28,30.60
2007,07,11,12,29,30.40
2007,07,11,12,30,30.40
2007,07,11,12,31,30.40
2007,07,11,12,32,30.60
2007,07,11,12,33,30.60
2007,07,11,12,34,30.70
2007,07,11,12,35,30.90
2007,07,11,12,36,31.00
2007,07,11,12,37,31.30
2007,07,11,12,38,31.50
2007,07,11,12,39,31.60
2007,07,11,12,40,31.80
2007,07,11,12,41,32.00
2007,07,11,12,42,32.20
2007,07,11,12,43,32.20
2007,07,11,12,44,32.20
2007,07,11,12,45,32.00
2007,07,11,12,46,31.60
2007,07,11,12,47,31.10
2007,07,11,12,48,30.70
2007,07,11,12,49,30.20
2007,07,11,12,50,29.60
2007,07,11,12,51,29.30
2007,07,11,12,52,29.00
2007,07,11,12,53,28.50
2007,07,11,12,54,28.30
2007,07,11,12,55,28.10
2007,07,11,12,56,28.00
2007,07,11,12,57,27.80
2007,07,11,12,58,27.60
2007,07,11,12,59,27.60
2007,07,11,13,00,27.50
2007,07,11,13,01,27.50
2007,07,11,13,02,27.70
2007,07,11,13,03,27.80
2007,07,11,13,04,27.70
2007,07,11,13,05,27.70
2007,07,11,13,06,27.80
2007,07,11,13,07,27.90
2007,07,11,13,08,27.90
2007,07,11,13,09,27.90
2007,07,11,13,10,27.80
2007,07,11,13,11,27.90
2007,07,11,13,12,28.00
2007,07,11,13,13,28.00
2007,07,11,13,14,28.10
2007,07,11,13,15,28.30
2007,07,11,13,16,28.40
2007,07,11,13,17,28.50
2007,07,11,13,18,28.60
2007,07,11,13,19,28.60
2007,07,11,13,20,28.70
2007,07,11,13,21,28.80
2007,07,11,13,22,28.90
2007,07,11,13,23,28.90
2007,07,11,13,24,28.90
2007,07,11,13,25,28.90
2007,07,11,13,26,29.10
2007,07,11,13,27,29.20
2007,07,11,13,28,29.40
2007,07,11,13,29,29.40
2007,07,11,13,30,29.40
2007,07,11,13,31,29.40
2007,07,11,13,32,29.40
2007,07,11,13,33,29.40
2007,07,11,13,34,29.40
2007,07,11,13,35,29.50
2007,07,11,13,36,29.70
2007,07,11,13,37,29.70
2007,07,11,13,38,29.70
2007,07,11,13,39,29.80
2007,07,11,13,40,29.80
2007,07,11,13,41,30.00
2007,07,11,13,42,30.10
2007,07,11,13,43,30.10
2007,07,11,13,44,30.10
2007,07,11,13,45,29.90
2007,07,11,13,46,29.90
2007,07,11,13,47,29.80
2007,07,11,13,48,29.80
2007,07,11,13,49,29.80
2007,07,11,13,50,29.90
2007,07,11,13,51,29.90
2007,07,11,13,52,29.90
2007,07,11,13,53,30.00
2007,07,11,13,54,30.10
2007,07,11,13,55,30.00
2007,07,11,13,56,29.90
2007,07,11,13,57,29.90
2007,07,11,13,58,29.90
2007,07,11,13,59,30.00
2007,07,11,14,00,30.00
2007,07,11,14,01,29.90
2007,07,11,14,02,29.80
2007,07,11,14,03,29.80
2007,07,11,14,04,29.80
2007,07,11,14,05,29.70
2007,07,11,14,06,29.70
2007,07,11,14,07,29.70
2007,07,11,14,08,29.70
2007,07,11,14,09,29.70
2007,07,11,14,10,29.70
2007,07,11,14,11,29.70
2007,07,11,14,12,29.80
2007,07,11,14,13,29.80
2007,07,11,14,14,29.80
2007,07,11,14,15,29.90
2007,07,11,14,16,30.00
2007,07,11,14,17,30.10
2007,07,11,14,18,30.10
2007,07,11,14,19,30.20
2007,07,11,14,20,30.20
2007,07,11,14,21,30.30
2007,07,11,14,22,30.30
2007,07,11,14,23,30.40
2007,07,11,14,24,30.40
2007,07,11,14,25,30.50
2007,07,11,14,26,30.60
2007,07,11,14,27,30.70
2007,07,11,14,28,30.70
2007,07,11,14,29,30.70
2007,07,11,14,30,30.60
2007,07,11,14,31,30.40
2007,07,11,14,32,30.30
2007,07,11,14,33,30.20
2007,07,11,14,34,30.20
2007,07,11,14,35,30.10
2007,07,11,14,36,29.90
2007,07,11,14,37,29.70
2007,07,11,14,38,29.50
2007,07,11,14,39,29.40
2007,07,11,14,40,29.40
2007,07,11,14,41,29.40
2007,07,11,14,42,29.40
2007,07,11,14,43,29.40
2007,07,11,14,44,29.40
2007,07,11,14,45,29.50
2007,07,11,14,46,29.60
2007,07,11,14,47,29.70
2007,07,11,14,48,29.60
2007,07,11,14,49,29.60
2007,07,11,14,50,29.60
2007,07,11,14,51,29.60
2007,07,11,14,52,29.60
2007,07,11,14,53,29.50
2007,07,11,14,54,29.40
2007,07,11,14,55,29.30
2007,07,11,14,56,29.10
2007,07,11,14,57,29.00
2007,07,11,14,58,28.90
2007,07,11,14,59,28.90
2007,07,11,15,00,28.90
2007,07,11,15,01,28.90
2007,07,11,15,02,28.90
2007,07,11,15,03,28.90
2007,07,11,15,04,29.00
2007,07,11,15,05,29.10
2007,07,11,15,06,29.10
2007,07,11,15,07,29.10
2007,07,11,15,08,29.00
2007,07,11,15,09,28.90
2007,07,11,15,10,28.80
2007,07,11,15,11,28.70
2007,07,11,15,12,28.60
2007,07,11,15,13,28.60
2007,07,11,15,14,28.60
2007,07,11,15,15,28.60
2007,07,11,15,16,28.60
2007,07,11,15,17,28.70
2007,07,11,15,18,28.80
2007,07,11,15,19,28.70
2007,07,11,15,20,28.80
2007,07,11,15,21,28.90
2007,07,11,15,22,29.00
2007,07,11,15,23,29.10
2007,07,11,15,24,29.20
2007,07,11,15,25,29.30
2007,07,11,15,26,29.30
2007,07,11,15,27,29.40
2007,07,11,15,28,29.50
2007,07,11,15,29,29.60
2007,07,11,15,30,29.60
2007,07,11,15,31,29.60
2007,07,11,15,32,29.50
2007,07,11,15,33,29.50
2007,07,11,15,34,29.50
2007,07,11,15,35,29.50
2007,07,11,15,36,29.50
2007,07,11,15,37,29.60
2007,07,11,15,38,29.70
2007,07,11,15,39,29.80
2007,07,11,15,40,29.90
2007,07,11,15,41,29.90
2007,07,11,15,42,30.10
2007,07,11,15,43,30.10
2007,07,11,15,44,30.20
2007,07,11,15,45,30.10
2007,07,11,15,46,30.20
2007,07,11,15,47,30.20
2007,07,11,15,48,30.10
2007,07,11,15,49,30.20
2007,07,11,15,50,30.20
2007,07,11,15,51,30.10
2007,07,11,15,52,30.10
2007,07,11,15,53,30.10
2007,07,11,15,54,30.20
2007,07,11,15,55,30.20
2007,07,11,15,56,30.20
2007,07,11,15,57,30.20
2007,07,11,15,58,30.20
2007,07,11,15,59,30.30
2007,07,11,16,00,30.30
2007,07,11,16,01,30.30
2007,07,11,16,02,30.30
2007,07,11,16,03,30.40
2007,07,11,16,04,30.40
2007,07,11,16,05,30.40
2007,07,11,16,06,30.30
2007,07,11,16,07,30.30
2007,07,11,16,08,30.30
2007,07,11,16,09,30.30
2007,07,11,16,10,30.40
2007,07,11,16,11,30.40
2007,07,11,16,12,30.60
2007,07,11,16,13,30.60
2007,07,11,16,14,30.60
2007,07,11,16,15,30.70
2007,07,11,16,16,30.70
2007,07,11,16,17,30.70
2007,07,11,16,18,30.60
2007,07,11,16,19,30.60
2007,07,11,16,20,30.40
2007,07,11,16,21,30.40
2007,07,11,16,22,30.60
2007,07,11,16,23,30.60
2007,07,11,16,24,30.60
2007,07,11,16,25,30.70
2007,07,11,16,26,30.70
2007,07,11,16,27,30.70
2007,07,11,16,28,30.80
2007,07,11,16,29,30.70
2007,07,11,16,30,30.70
2007,07,11,16,31,30.70
2007,07,11,16,32,30.70
2007,07,11,16,33,30.70
2007,07,11,16,34,30.70
2007,07,11,16,35,30.70
2007,07,11,16,36,30.70
2007,07,11,16,37,30.70
2007,07,11,16,38,30.70
2007,07,11,16,39,30.70
2007,07,11,16,40,30.80
2007,07,11,16,41,30.80
2007,07,11,16,42,30.90
2007,07,11,16,43,30.90
2007,07,11,16,44,31.00
2007,07,11,16,45,31.10
2007,07,11,16,46,31.10
2007,07,11,16,47,31.20
2007,07,11,16,48,31.30
2007,07,11,16,49,31.40
2007,07,11,16,50,31.40
2007,07,11,16,51,31.60
2007,07,11,16,52,31.60
2007,07,11,16,53,31.60
2007,07,11,16,54,31.70
2007,07,11,16,55,31.70
2007,07,11,16,56,31.70
2007,07,11,16,57,31.70
2007,07,11,16,58,31.70
2007,07,11,16,59,31.70
2007,07,11,17,00,31.70
2007,07,11,17,01,31.80
2007,07,11,17,02,31.80
2007,07,11,17,03,31.80
2007,07,11,17,04,31.80
2007,07,11,17,05,32.00
2007,07,11,17,06,32.10
2007,07,11,17,07,32.10
2007,07,11,17,08,32.20
2007,07,11,17,09,32.30
2007,07,11,17,10,32.40
2007,07,11,17,11,32.40
2007,07,11,17,12,32.60
2007,07,11,17,13,32.80
2007,07,11,17,14,32.80
2007,07,11,17,15,32.90
2007,07,11,17,16,33.00
2007,07,11,17,17,33.10
2007,07,11,17,18,33.20
2007,07,11,17,19,33.30